Year,Month,Day,Hour,Minute,Value (Times are PST for temperature in C)
2007,10,26,10,50,7.80
2007,10,26,10,51,7.80
2007,10,26,10,52,7.80
2007,10,26,10,53,7.80
2007,10,26,10,54,7.80
2007,10,26,10,55,7.80
2007,10,26,10,56,7.80
2007,10,26,10,57,7.80
2007,10,26,10,58,7.80
2007,10,26,10,59,7.80
2007,10,26,11,00,7.80
2007,10,26,11,01,7.80
2007,10,26,11,02,7.80
2007,10,26,11,03,7.80
2007,10,26,11,04,7.80
2007,10,26,11,05,7.80
2007,10,26,11,06,7.80
2007,10,26,11,07,7.80
2007,10,26,11,08,7.80
2007,10,26,11,10,7.80
2007,10,26,11,11,7.80
2007,10,26,11,12,7.70
2007,10,26,11,13,7.70
2007,10,26,11,14,7.70
2007,10,26,11,15,7.70
2007,10,26,11,16,7.70
2007,10,26,11,17,7.70
2007,10,26,11,18,7.70
2007,10,26,11,19,7.70
2007,10,26,11,20,7.70
2007,10,26,11,21,7.80
2007,10,26,11,22,7.80
2007,10,26,11,23,7.80
2007,10,26,11,24,7.80
2007,10,26,11,25,7.80
2007,10,26,11,26,7.80
2007,10,26,11,27,7.80
2007,10,26,11,28,7.90
2007,10,26,11,29,7.90
2007,10,26,11,30,8.00
2007,10,26,11,31,8.10
2007,10,26,11,32,8.20
2007,10,26,11,33,8.30
2007,10,26,11,34,8.30
2007,10,26,11,35,8.40
2007,10,26,11,36,8.40
2007,10,26,11,37,8.40
2007,10,26,11,38,8.40
2007,10,26,11,39,8.40
2007,10,26,11,40,8.40
2007,10,26,11,41,8.40
2007,10,26,11,42,8.40
2007,10,26,11,43,8.40
2007,10,26,11,44,8.40
2007,10,26,11,45,8.40
2007,10,26,11,46,8.40
2007,10,26,11,47,8.40
2007,10,26,11,48,8.40
2007,10,26,11,49,8.40
2007,10,26,11,50,8.40
2007,10,26,11,51,8.40
2007,10,26,11,52,8.40
2007,10,26,11,53,8.40
2007,10,26,11,54,8.40
2007,10,26,11,55,8.40
2007,10,26,11,56,8.40
2007,10,26,11,57,8.40
2007,10,26,11,58,8.50
2007,10,26,11,59,8.50
2007,10,26,12,00,8.60
2007,10,26,12,01,8.60
2007,10,26,12,02,8.70
2007,10,26,12,03,8.80
2007,10,26,12,04,8.90
2007,10,26,12,05,8.90
2007,10,26,12,06,9.00
2007,10,26,12,07,9.10
2007,10,26,12,08,9.10
2007,10,26,12,09,9.10
2007,10,26,12,10,9.20
2007,10,26,12,11,9.20
2007,10,26,12,12,9.30
2007,10,26,12,13,9.30
2007,10,26,12,14,9.30
2007,10,26,12,15,9.40
2007,10,26,12,16,9.40
2007,10,26,12,17,9.50
2007,10,26,12,18,9.60
2007,10,26,12,19,9.70
2007,10,26,12,20,9.70
2007,10,26,12,21,9.70
2007,10,26,12,22,9.70
2007,10,26,12,23,9.80
2007,10,26,12,24,9.80
2007,10,26,12,25,9.80
2007,10,26,12,26,9.80
2007,10,26,12,27,9.80
2007,10,26,12,28,9.70
2007,10,26,12,29,9.70
2007,10,26,12,30,9.70
2007,10,26,12,31,9.60
2007,10,26,12,32,9.60
2007,10,26,12,33,9.50
2007,10,26,12,34,9.40
2007,10,26,12,35,9.40
2007,10,26,12,36,9.30
2007,10,26,12,37,9.30
2007,10,26,12,38,9.20
2007,10,26,12,39,9.20
2007,10,26,12,40,9.10
2007,10,26,12,41,9.10
2007,10,26,12,42,9.10
2007,10,26,12,43,9.10
2007,10,26,12,44,9.10
2007,10,26,12,45,9.10
2007,10,26,12,46,9.10
2007,10,26,12,47,9.10
2007,10,26,12,48,9.20
2007,10,26,12,49,9.20
2007,10,26,12,50,9.20
2007,10,26,12,51,9.20
2007,10,26,12,52,9.20
2007,10,26,12,53,9.20
2007,10,26,12,54,9.20
2007,10,26,12,55,9.20
2007,10,26,12,56,9.30
2007,10,26,12,57,9.30
2007,10,26,12,58,9.30
2007,10,26,12,59,9.30
2007,10,26,13,00,9.30
2007,10,26,13,01,9.30
2007,10,26,13,02,9.40
2007,10,26,13,03,9.40
2007,10,26,13,04,9.50
2007,10,26,13,05,9.50
2007,10,26,13,06,9.60
2007,10,26,13,07,9.60
2007,10,26,13,08,9.60
2007,10,26,13,09,9.70
2007,10,26,13,10,9.70
2007,10,26,13,11,9.70
2007,10,26,13,12,9.70
2007,10,26,13,13,9.70
2007,10,26,13,14,9.70
2007,10,26,13,15,9.70
2007,10,26,13,16,9.70
2007,10,26,13,17,9.70
2007,10,26,13,18,9.80
2007,10,26,13,19,9.80
2007,10,26,13,20,9.80
2007,10,26,13,21,9.80
2007,10,26,13,22,9.90
2007,10,26,13,23,9.90
2007,10,26,13,24,10.00
2007,10,26,13,25,10.00
2007,10,26,13,26,10.00
2007,10,26,13,27,9.90
2007,10,26,13,28,9.90
2007,10,26,13,29,9.90
2007,10,26,13,30,9.90
2007,10,26,13,31,9.80
2007,10,26,13,32,9.80
2007,10,26,13,33,9.80
2007,10,26,13,34,9.80
2007,10,26,13,35,9.80
2007,10,26,13,36,9.80
2007,10,26,13,37,9.90
2007,10,26,13,38,9.90
2007,10,26,13,39,10.00
2007,10,26,13,40,10.10
2007,10,26,13,41,10.20
2007,10,26,13,42,10.20
2007,10,26,13,43,10.20
2007,10,26,13,44,10.20
2007,10,26,13,45,10.20
2007,10,26,13,46,10.30
2007,10,26,13,47,10.30
2007,10,26,13,48,10.30
2007,10,26,13,49,10.30
2007,10,26,13,50,10.40
2007,10,26,13,51,10.50
2007,10,26,13,52,10.50
2007,10,26,13,53,10.60
2007,10,26,13,54,10.70
2007,10,26,13,55,10.70
2007,10,26,13,56,10.80
2007,10,26,13,57,10.80
2007,10,26,13,58,10.90
2007,10,26,13,59,10.90
2007,10,26,14,00,10.90
2007,10,26,14,01,10.90
2007,10,26,14,02,10.90
2007,10,26,14,03,10.90
2007,10,26,14,04,10.90
2007,10,26,14,05,10.90
2007,10,26,14,06,11.00
2007,10,26,14,07,11.00
2007,10,26,14,08,11.10
2007,10,26,14,09,11.20
2007,10,26,14,10,11.30
2007,10,26,14,11,11.40
2007,10,26,14,12,11.40
2007,10,26,14,13,11.40
2007,10,26,14,14,11.40
2007,10,26,14,15,11.40
2007,10,26,14,16,11.40
2007,10,26,14,17,11.40
2007,10,26,14,18,11.40
2007,10,26,14,19,11.30
2007,10,26,14,20,11.30
2007,10,26,14,21,11.30
2007,10,26,14,22,11.30
2007,10,26,14,23,11.30
2007,10,26,14,24,11.30
2007,10,26,14,25,11.30
2007,10,26,14,26,11.20
2007,10,26,14,27,11.20
2007,10,26,14,28,11.20
2007,10,26,14,29,11.20
2007,10,26,14,30,11.10
2007,10,26,14,31,11.10
2007,10,26,14,32,11.00
2007,10,26,14,33,10.90
2007,10,26,14,34,10.80
2007,10,26,14,35,10.80
2007,10,26,14,36,10.80
2007,10,26,14,37,10.90
2007,10,26,14,38,10.90
2007,10,26,14,39,10.90
2007,10,26,14,40,10.80
2007,10,26,14,41,10.80
2007,10,26,14,42,10.80
2007,10,26,14,43,10.90
2007,10,26,14,44,10.90
2007,10,26,14,45,11.00
2007,10,26,14,46,11.10
2007,10,26,14,47,11.30
2007,10,26,14,48,11.40
2007,10,26,14,49,11.40
2007,10,26,14,50,11.50
2007,10,26,14,51,11.60
2007,10,26,14,52,11.60
2007,10,26,14,53,11.60
2007,10,26,14,54,11.60
2007,10,26,14,55,11.60
2007,10,26,14,56,11.60
2007,10,26,14,57,11.70
2007,10,26,14,58,11.70
2007,10,26,14,59,11.70
2007,10,26,15,00,11.70
2007,10,26,15,01,11.70
2007,10,26,15,02,11.70
2007,10,26,15,03,11.70
2007,10,26,15,04,11.70
2007,10,26,15,05,11.60
2007,10,26,15,06,11.60
2007,10,26,15,07,11.60
2007,10,26,15,08,11.60
2007,10,26,15,09,11.60
2007,10,26,15,10,11.70
2007,10,26,15,11,11.80
2007,10,26,15,12,11.80
2007,10,26,15,13,11.70
2007,10,26,15,14,11.70
2007,10,26,15,15,11.70
2007,10,26,15,16,11.60
2007,10,26,15,17,11.70
2007,10,26,15,18,11.70
2007,10,26,15,19,11.80
2007,10,26,15,20,11.80
2007,10,26,15,21,11.80
2007,10,26,15,22,11.80
2007,10,26,15,23,11.70
2007,10,26,15,24,11.60
2007,10,26,15,25,11.60
2007,10,26,15,26,11.50
2007,10,26,15,27,11.50
2007,10,26,15,28,11.40
2007,10,26,15,29,11.40
2007,10,26,15,30,11.50
2007,10,26,15,31,11.50
2007,10,26,15,32,11.50
2007,10,26,15,33,11.50
2007,10,26,15,34,11.40
2007,10,26,15,35,11.40
2007,10,26,15,36,11.20
2007,10,26,15,37,11.10
2007,10,26,15,38,10.90
2007,10,26,15,39,10.90
2007,10,26,15,40,10.80
2007,10,26,15,41,10.90
2007,10,26,15,42,10.90
2007,10,26,15,43,10.90
2007,10,26,15,44,11.00
2007,10,26,15,45,11.00
2007,10,26,15,46,11.10
2007,10,26,15,47,11.10
2007,10,26,15,48,11.10
2007,10,26,15,49,11.10
2007,10,26,15,50,11.10
2007,10,26,15,51,11.10
2007,10,26,15,52,11.10
2007,10,26,15,53,11.20
2007,10,26,15,54,11.20
2007,10,26,15,55,11.20
2007,10,26,15,56,11.30
2007,10,26,15,57,11.30
2007,10,26,15,58,11.30
2007,10,26,15,59,11.30
2007,10,26,16,00,11.30
2007,10,26,16,01,11.30
2007,10,26,16,02,11.30
2007,10,26,16,03,11.30
2007,10,26,16,04,11.30
2007,10,26,16,05,11.30
2007,10,26,16,06,11.30
2007,10,26,16,07,11.40
2007,10,26,16,08,11.40
2007,10,26,16,09,11.50
2007,10,26,16,10,11.50
2007,10,26,16,11,11.60
2007,10,26,16,12,11.60
2007,10,26,16,13,11.60
2007,10,26,16,14,11.60
2007,10,26,16,15,11.60
2007,10,26,16,16,11.60
2007,10,26,16,17,11.60
2007,10,26,16,18,11.60
2007,10,26,16,19,11.60
2007,10,26,16,20,11.70
2007,10,26,16,21,11.70
2007,10,26,16,22,11.80
2007,10,26,16,23,11.80
2007,10,26,16,24,11.80
2007,10,26,16,25,11.80
2007,10,26,16,26,11.70
2007,10,26,16,27,11.60
2007,10,26,16,28,11.50
2007,10,26,16,29,11.30
2007,10,26,16,30,11.20
2007,10,26,16,31,11.10
2007,10,26,16,32,10.90
2007,10,26,16,33,10.80
2007,10,26,16,34,10.80
2007,10,26,16,35,10.70
2007,10,26,16,36,10.70
2007,10,26,16,37,10.70
2007,10,26,16,38,10.60
2007,10,26,16,39,10.60
2007,10,26,16,40,10.60
2007,10,26,16,41,10.50
2007,10,26,16,42,10.50
2007,10,26,16,43,10.40
2007,10,26,16,44,10.40
2007,10,26,16,45,10.40
2007,10,26,16,46,10.40
2007,10,26,16,47,10.30
2007,10,26,16,48,10.30
2007,10,26,16,49,10.30
2007,10,26,16,50,10.20
2007,10,26,16,51,10.20
2007,10,26,16,52,10.20
2007,10,26,16,53,10.10
2007,10,26,16,54,10.10
2007,10,26,16,55,10.00
2007,10,26,16,56,9.90
2007,10,26,16,57,9.70
2007,10,26,16,58,9.60
2007,10,26,16,59,9.40
2007,10,26,17,00,9.30
2007,10,26,17,01,9.10
2007,10,26,17,02,9.00
2007,10,26,17,03,8.80
2007,10,26,17,04,8.70
2007,10,26,17,05,8.50
2007,10,26,17,06,8.50
2007,10,26,17,07,8.40
2007,10,26,17,08,8.30
2007,10,26,17,09,8.20
2007,10,26,17,10,8.10
2007,10,26,17,11,8.10
2007,10,26,17,12,8.10
2007,10,26,17,13,8.00
2007,10,26,17,14,7.90
2007,10,26,17,15,7.90
2007,10,26,17,16,7.80
2007,10,26,17,17,7.80
2007,10,26,17,18,7.80
2007,10,26,17,19,7.70
2007,10,26,17,20,7.70
2007,10,26,17,21,7.70
2007,10,26,17,22,7.70
2007,10,26,17,23,7.70
2007,10,26,17,24,7.70
2007,10,26,17,25,7.60
2007,10,26,17,26,7.60
2007,10,26,17,27,7.60
2007,10,26,17,28,7.60
2007,10,26,17,29,7.60
2007,10,26,17,30,7.60
2007,10,26,17,31,7.60
2007,10,26,17,32,7.60
2007,10,26,17,33,7.50
2007,10,26,17,34,7.50
2007,10,26,17,35,7.40
2007,10,26,17,36,7.40
2007,10,26,17,37,7.40
2007,10,26,17,38,7.30
2007,10,26,17,39,7.30
2007,10,26,17,40,7.30
2007,10,26,17,41,7.20
2007,10,26,17,42,7.20
2007,10,26,17,43,7.20
2007,10,26,17,44,7.20
2007,10,26,17,45,7.20
2007,10,26,17,46,7.20
2007,10,26,17,47,7.10
2007,10,26,17,48,7.10
2007,10,26,17,49,7.10
2007,10,26,17,50,7.10
2007,10,26,17,51,7.00
2007,10,26,17,52,7.00
2007,10,26,17,53,7.00
2007,10,26,17,54,6.90
2007,10,26,17,55,6.90
2007,10,26,17,56,6.90
2007,10,26,17,57,6.90
2007,10,26,17,58,6.80
2007,10,26,17,59,6.80
2007,10,26,18,00,6.80
2007,10,26,18,01,6.80
2007,10,26,18,02,6.70
2007,10,26,18,03,6.70
2007,10,26,18,04,6.60
2007,10,26,18,05,6.60
2007,10,26,18,06,6.60
2007,10,26,18,07,6.60
2007,10,26,18,08,6.50
2007,10,26,18,09,6.50
2007,10,26,18,10,6.50
2007,10,26,18,11,6.50
2007,10,26,18,12,6.40
2007,10,26,18,13,6.40
2007,10,26,18,14,6.40
2007,10,26,18,15,6.30
2007,10,26,18,16,6.30
2007,10,26,18,17,6.30
2007,10,26,18,18,6.20
2007,10,26,18,19,6.20
2007,10,26,18,20,6.20
2007,10,26,18,21,6.20
2007,10,26,18,22,6.10
2007,10,26,18,23,6.10
2007,10,26,18,24,6.10
2007,10,26,18,25,6.00
2007,10,26,18,26,6.00
2007,10,26,18,27,5.90
2007,10,26,18,28,5.90
2007,10,26,18,29,5.90
2007,10,26,18,30,5.90
2007,10,26,18,31,5.90
2007,10,26,18,32,5.80
2007,10,26,18,33,5.80
2007,10,26,18,34,5.80
2007,10,26,18,35,5.70
2007,10,26,18,36,5.70
2007,10,26,18,37,5.70
2007,10,26,18,38,5.70
2007,10,26,18,39,5.70
2007,10,26,18,40,5.60
2007,10,26,18,41,5.60
2007,10,26,18,42,5.60
2007,10,26,18,43,5.60
2007,10,26,18,44,5.60
2007,10,26,18,45,5.60
2007,10,26,18,46,5.50
2007,10,26,18,47,5.50
2007,10,26,18,48,5.40
2007,10,26,18,49,5.40
2007,10,26,18,50,5.40
2007,10,26,18,51,5.40
2007,10,26,18,52,5.30
2007,10,26,18,53,5.30
2007,10,26,18,54,5.30
2007,10,26,18,55,5.30
2007,10,26,18,56,5.30
2007,10,26,18,57,5.30
2007,10,26,18,58,5.20
2007,10,26,18,59,5.20
2007,10,26,19,00,5.20
2007,10,26,19,01,5.20
2007,10,26,19,02,5.20
2007,10,26,19,03,5.20
2007,10,26,19,04,5.20
2007,10,26,19,05,5.20
2007,10,26,19,06,5.10
2007,10,26,19,07,5.10
2007,10,26,19,08,5.10
2007,10,26,19,09,5.00
2007,10,26,19,10,5.00
2007,10,26,19,11,4.90
2007,10,26,19,12,4.90
2007,10,26,19,13,4.90
2007,10,26,19,14,4.80
2007,10,26,19,15,4.80
2007,10,26,19,16,4.80
2007,10,26,19,17,4.80
2007,10,26,19,18,4.70
2007,10,26,19,19,4.70
2007,10,26,19,20,4.70
2007,10,26,19,21,4.70
2007,10,26,19,22,4.70
2007,10,26,19,23,4.70
2007,10,26,19,24,4.60
2007,10,26,19,25,4.60
2007,10,26,19,26,4.60
2007,10,26,19,27,4.60
2007,10,26,19,28,4.60
2007,10,26,19,29,4.60
2007,10,26,19,30,4.50
2007,10,26,19,31,4.50
2007,10,26,19,32,4.50
2007,10,26,19,33,4.50
2007,10,26,19,34,4.40
2007,10,26,19,35,4.40
2007,10,26,19,36,4.40
2007,10,26,19,37,4.40
2007,10,26,19,38,4.40
2007,10,26,19,39,4.30
2007,10,26,19,40,4.30
2007,10,26,19,41,4.30
2007,10,26,19,42,4.30
2007,10,26,19,43,4.30
2007,10,26,19,44,4.20
2007,10,26,19,45,4.20
2007,10,26,19,46,4.20
2007,10,26,19,47,4.10
2007,10,26,19,48,4.10
2007,10,26,19,49,4.10
2007,10,26,19,50,4.10
2007,10,26,19,51,4.10
2007,10,26,19,52,4.10
2007,10,26,19,53,4.10
2007,10,26,19,54,4.10
2007,10,26,19,55,4.10
2007,10,26,19,56,4.10
2007,10,26,19,57,4.10
2007,10,26,19,58,4.10
2007,10,26,19,59,4.10
2007,10,26,20,00,4.00
2007,10,26,20,01,4.00
2007,10,26,20,02,4.00
2007,10,26,20,03,4.00
2007,10,26,20,04,3.90
2007,10,26,20,05,3.90
2007,10,26,20,06,3.90
2007,10,26,20,07,3.90
2007,10,26,20,08,3.90
2007,10,26,20,09,3.80
2007,10,26,20,10,3.80
2007,10,26,20,11,3.80
2007,10,26,20,12,3.80
2007,10,26,20,13,3.80
2007,10,26,20,14,3.80
2007,10,26,20,15,3.80
2007,10,26,20,16,3.80
2007,10,26,20,17,3.80
2007,10,26,20,18,3.80
2007,10,26,20,19,3.70
2007,10,26,20,20,3.70
2007,10,26,20,21,3.70
2007,10,26,20,22,3.70
2007,10,26,20,23,3.70
2007,10,26,20,24,3.70
2007,10,26,20,25,3.60
2007,10,26,20,26,3.60
2007,10,26,20,27,3.60
2007,10,26,20,28,3.60
2007,10,26,20,29,3.60
2007,10,26,20,30,3.60
2007,10,26,20,31,3.60
2007,10,26,20,32,3.70
2007,10,26,20,33,3.70
2007,10,26,20,34,3.80
2007,10,26,20,35,3.80
2007,10,26,20,36,3.90
2007,10,26,20,37,4.00
2007,10,26,20,38,4.10
2007,10,26,20,39,4.20
2007,10,26,20,40,4.20
2007,10,26,20,41,4.20
2007,10,26,20,42,4.20
2007,10,26,20,43,4.10
2007,10,26,20,44,4.10
2007,10,26,20,45,4.00
2007,10,26,20,46,3.90
2007,10,26,20,47,3.90
2007,10,26,20,48,3.80
2007,10,26,20,49,3.80
2007,10,26,20,50,3.80
2007,10,26,20,51,3.80
2007,10,26,20,52,3.70
2007,10,26,20,53,3.70
2007,10,26,20,54,3.80
2007,10,26,20,55,3.90
2007,10,26,20,56,4.00
2007,10,26,20,57,4.10
2007,10,26,20,58,4.10
2007,10,26,20,59,4.20
2007,10,26,21,00,4.20
2007,10,26,21,01,4.20
2007,10,26,21,02,4.10
2007,10,26,21,03,4.10
2007,10,26,21,04,4.00
2007,10,26,21,05,3.90
2007,10,26,21,06,3.90
2007,10,26,21,07,3.80
2007,10,26,21,08,3.80
2007,10,26,21,09,3.70
2007,10,26,21,10,3.70
2007,10,26,21,11,3.60
2007,10,26,21,12,3.60
2007,10,26,21,13,3.50
2007,10,26,21,14,3.50
2007,10,26,21,15,3.50
2007,10,26,21,16,3.40
2007,10,26,21,17,3.40
2007,10,26,21,18,3.40
2007,10,26,21,19,3.40
2007,10,26,21,20,3.40
2007,10,26,21,21,3.40
2007,10,26,21,22,3.40
2007,10,26,21,23,3.30
2007,10,26,21,24,3.30
2007,10,26,21,25,3.30
2007,10,26,21,26,3.30
2007,10,26,21,27,3.20
2007,10,26,21,28,3.20
2007,10,26,21,29,3.20
2007,10,26,21,30,3.10
2007,10,26,21,31,3.10
2007,10,26,21,32,3.10
2007,10,26,21,33,3.00
2007,10,26,21,34,3.00
2007,10,26,21,35,3.00
2007,10,26,21,36,3.00
2007,10,26,21,37,3.00
2007,10,26,21,38,3.00
2007,10,26,21,39,3.10
2007,10,26,21,40,3.10
2007,10,26,21,41,3.10
2007,10,26,21,42,3.10
2007,10,26,21,43,3.10
2007,10,26,21,44,3.10
2007,10,26,21,45,3.10
2007,10,26,21,46,3.10
2007,10,26,21,47,3.10
2007,10,26,21,48,3.10
2007,10,26,21,49,3.10
2007,10,26,21,50,3.10
2007,10,26,21,51,3.10
2007,10,26,21,52,3.10
2007,10,26,21,53,3.10
2007,10,26,21,54,3.10
2007,10,26,21,55,3.10
2007,10,26,21,56,3.10
2007,10,26,21,57,3.10
2007,10,26,21,58,3.10
2007,10,26,21,59,3.10
2007,10,26,22,00,3.10
2007,10,26,22,01,3.10
2007,10,26,22,02,3.10
2007,10,26,22,03,3.10
2007,10,26,22,04,3.10
2007,10,26,22,05,3.20
2007,10,26,22,06,3.20
2007,10,26,22,07,3.20
2007,10,26,22,08,3.20
2007,10,26,22,09,3.20
2007,10,26,22,10,3.20
2007,10,26,22,11,3.20
2007,10,26,22,12,3.20
2007,10,26,22,13,3.20
2007,10,26,22,14,3.20
2007,10,26,22,15,3.30
2007,10,26,22,16,3.30
2007,10,26,22,17,3.30
2007,10,26,22,18,3.30
2007,10,26,22,19,3.30
2007,10,26,22,20,3.20
2007,10,26,22,21,3.20
2007,10,26,22,22,3.20
2007,10,26,22,23,3.10
2007,10,26,22,24,3.10
2007,10,26,22,25,3.10
2007,10,26,22,26,3.00
2007,10,26,22,27,3.00
2007,10,26,22,28,3.00
2007,10,26,22,29,3.10
2007,10,26,22,30,3.10
2007,10,26,22,31,3.10
2007,10,26,22,32,3.10
2007,10,26,22,33,3.10
2007,10,26,22,34,3.10
2007,10,26,22,35,3.10
2007,10,26,22,36,3.20
2007,10,26,22,37,3.20
2007,10,26,22,38,3.20
2007,10,26,22,39,3.10
2007,10,26,22,40,3.10
2007,10,26,22,41,3.10
2007,10,26,22,42,3.10
2007,10,26,22,43,3.10
2007,10,26,22,44,3.00
2007,10,26,22,45,3.00
2007,10,26,22,46,3.10
2007,10,26,22,47,3.10
2007,10,26,22,48,3.20
2007,10,26,22,49,3.20
2007,10,26,22,50,3.20
2007,10,26,22,51,3.20
2007,10,26,22,52,3.20
2007,10,26,22,53,3.10
2007,10,26,22,54,3.10
2007,10,26,22,55,3.00
2007,10,26,22,56,2.90
2007,10,26,22,57,2.90
2007,10,26,22,58,2.90
2007,10,26,22,59,3.00
2007,10,26,23,00,3.10
2007,10,26,23,01,3.20
2007,10,26,23,02,3.40
2007,10,26,23,03,3.60
2007,10,26,23,04,3.70
2007,10,26,23,05,3.70
2007,10,26,23,06,3.70
2007,10,26,23,07,3.70
2007,10,26,23,08,3.70
2007,10,26,23,09,3.70
2007,10,26,23,10,3.70
2007,10,26,23,11,3.70
2007,10,26,23,12,3.70
2007,10,26,23,13,3.70
2007,10,26,23,14,3.50
2007,10,26,23,15,3.40
2007,10,26,23,16,3.30
2007,10,26,23,17,3.20
2007,10,26,23,18,3.10
2007,10,26,23,19,3.10
2007,10,26,23,20,3.10
2007,10,26,23,21,3.00
2007,10,26,23,22,3.00
2007,10,26,23,23,3.10
2007,10,26,23,24,3.10
2007,10,26,23,25,3.10
2007,10,26,23,26,3.00
2007,10,26,23,27,3.00
2007,10,26,23,28,2.90
2007,10,26,23,29,2.80
2007,10,26,23,30,2.80
2007,10,26,23,31,2.70
2007,10,26,23,32,2.70
2007,10,26,23,33,2.70
2007,10,26,23,34,2.70
2007,10,26,23,35,2.80
2007,10,26,23,36,2.80
2007,10,26,23,37,2.80
2007,10,26,23,38,2.80
2007,10,26,23,39,2.90
2007,10,26,23,40,3.20
2007,10,26,23,41,3.40
2007,10,26,23,42,3.60
2007,10,26,23,43,3.80
2007,10,26,23,44,3.80
2007,10,26,23,45,3.90
2007,10,26,23,46,4.00
2007,10,26,23,47,4.10
2007,10,26,23,48,4.10
2007,10,26,23,49,4.00
2007,10,26,23,50,3.80
2007,10,26,23,51,3.70
2007,10,26,23,52,3.60
2007,10,26,23,53,3.40
2007,10,26,23,54,3.30
2007,10,26,23,55,3.20
2007,10,26,23,56,3.20
2007,10,26,23,57,3.20
2007,10,26,23,58,3.30
2007,10,26,23,59,3.20
